Regional Weather Roundup
Issued by NWS Charleston, SC

Current Version | Previous Version | Graphics & Text | Print | Product List | Glossary On
Versions: 1 2 3 4 5 6 7 8 9 10 11 12 13 14 15 16 17 18 19 20 21 22 23 24 25 26 27 28 29 30 31 32 33 34 35 36 37 38 39 40 41 42 43 44 45 46 47 48 49 50
000
ASUS42 KCHS 291010
RWRCHS
REGIONAL WEATHER ROUNDUP
NATIONAL WEATHER SERVICE CHARLESTON SC
600 AM EDT TUE JUL 29 2014

NOTE: "FAIR" INDICATES FEW OR NO CLOUDS BELOW 12,000 FEET WITH NO
SIGNIFICANT WEATHER AND/OR OBSTRUCTIONS TO VISIBILITY.

NOT ALL STATIONS ARE QUALITY CONTROLLED BY THE NATIONAL
WEATHER SERVICE. USE DATA WITH CAUTION...ESPECIALLY
DEWPOINT OBSERVATIONS.

SCZ027-030-031-034>040-042>050-291100-
...SOUTH CAROLINA...

CITY           SKY/WX    TMP DP  RH WIND       PRES   REMARKS
N CHARLESTON   PTCLDY    74  62  66 N7        29.87R
WATERFRONT PRK   N/A     79 N/A N/A N13         N/A
FORT JOHNSON   NOT AVBL
MOUNT PLEASANT FAIR      73  64  73 N6        29.87R
JOHNS ISLAND   SUNNY     75  63  64 CALM      29.87R
PINOPOLIS        N/A     79  64  61 NE14      29.80R
MONCKS CORNER    N/A     75  66  73 N8        29.88R
SUMMERVILLE    FAIR      68  68 100 CALM      29.89R
BEAUFORT MCAS  PTCLDY    74  65  73 NE9       29.88R
BEAUFORT ARPT  PTSUNNY   75  68  78 N3        29.87R
HILTON HEAD IS NOT AVBL
GEORGETOWN     NOT AVBL
WALTERBORO     SUNNY     70  70 100 N3        29.89S
ORANGEBURG     CLEAR     71  59  65 N5        29.91R
BARNWELL       FAIR      64  61  88 N3        29.91S
AIKEN          FAIR      68  61  77 N3        29.97R
MANNING        FAIR      70  63  78 N5        29.90R
KINGSTREE      NOT AVBL
COLUMBIA       PTCLDY    73  59  61 CALM      29.92R
SUMTER         PTCLDY    70  59  68 N6        29.89R
FLORENCE       PTCLDY    70  60  70 N7        29.90R
MYRTLE BEACH   PTCLDY    72  64  78 N8        29.88R
N MYRTLE BEACH MOCLDY    71  66  84 N8        29.88R

$$

GAZ063-065-086>088-099>101-113>116-118-119-134-136>141-150-291100-
...GEORGIA...

CITY           SKY/WX    TMP DP  RH WIND       PRES   REMARKS
SAVANNAH ARPT  MOCLDY    76  65  68 NW5       29.89R
HUNTER AAF     MOCLDY    76  67  73 NW7       29.87R
FORT STEWART   MOCLDY    74  66  76 NW3       29.89R
STATESBORO     NOT AVBL
SYLVANIA       SUNNY     69  68  98 CALM      29.91R
CLAXTON        FAIR      72  72 100 CALM      29.91R
THOMSON        CLEAR     64  64 100 CALM      29.98R
AUGUSTA-BUSH   CLEAR     63  61  93 SE3       29.91R
AUGUSTA-DANIEL CLEAR     72  59  63 N6        29.93R
SWAINSBORO     PTSUNNY   68  68 100 NW3       29.93R
VIDALIA          N/A     72  63  73 NW6       29.92R
ALMA           NOT AVBL
WAYCROSS       PTCLDY    76  74  91 NW5       29.91R
JESUP          PTSUNNY   77  72  83 NW6       29.90S
BRUNSWICK      CLEAR     77  70  78 W6        29.90R
SAINT SIMONS   CLEAR     77  70  79 NW6       29.88S

$$

SCZ027-028-034-036>038-045-046-048>050-GAZ119-141-291100-
...LAKE AND SUPPLEMENTAL COASTAL OBSERVATIONS...

STATION/POSITION TIME  TEMP    WIND        PRES    WAVE   SWELL
                       AIR SEA DIR/SP/G            HT/PER HT/PER/DIR
                 (UTC) (F)     (DEG/KT/KT) (MB)    (FT/S) (FT/S/D)
UPR LAKE MARION  NOT AVBL
WINYAH BAY       0900   74     350/  3     1010.0S
LAKE MURRAY      0900   71     350/  2/  5 1012.5R
ACE BASIN NERRS  0900   74     360/  1     1011.0S
FORT PULASKI     1000   75     320/  7/  8 1011.8S
SAPELO ISLAND    0900   78     270/  6     1012.0S

$$

ANZ835-935-AMZ111-154-330-350-352-354-374-450-454-472-291100-
...C-MAN AND BUOY OBSERVATIONS...

STATION/POSITION TIME  TEMP    WIND        PRES    WAVE   SWELL
                       AIR SEA DIR/SP/G            HT/PER HT/PER/DIR
                 (UTC) (F)     (DEG/KT/KT) (MB)    (FT/S) (FT/S/D)
FOLLY BEACH CMAN 0900   78     350/  9/ 12 1011.2R
BUOY 41004       1000   82 84   20/ 14/ 16 1009.3R   4/ 6   2/ 6
BUOY 41008       1000   82 85  340/ 12/ 16 1011.2R   3/ 4   2/150/ 8
5E ST. MARYS GA  1000      85                N/A     2/ 3
FRYING PAN BUOY  NOT AVBL
BUOY 41025       1000          VRB 10/ 12  1010.5R   3/ 8   3/150/ 8
CAPE LOOKOUT NC  0900   76     360/  9/ 11 1010.3S
BUOY 41002       0933   82 81  250/ 14/ 19 1013.6R   6/ 7   5/250/ 7
BUOY 41010       1000   85 84  260/ 17/ 19 1013.0R   4/ 5   2/120/ 8
BUOY 41012       NOT AVBL
ST AUGUSTINE FL  1000   80     270/  6/  9 1012.8S
CAPERS NEARSHORE 0900   78      20/ 14/ 16   N/A
FRIPP NEARSHORE  NOT AVBL


$$


USA.gov is the U.S. government's official web portal to all federal, state and local government web resources and services.